Regional Weather Roundup
Issued by NWS

Home | Current Version | Previous Version | Graphics & Text | Print | Product List | Glossary On
Versions: 1 2 3 4 5 6 7 8 9 10 11 12 13 14 15 16 17 18 19 20 21 22 23 24 25 26 27 28 29 30 31 32 33 34 35 36 37 38 39 40 41 42 43 44 45 46 47 48 49 50
000
ASUS43 KMPX 240801
RWRMN
WEATHER ROUNDUP FOR MINNESOTA
NATIONAL WEATHER SERVICE TWIN CITIES/CHANHASSEN MN
300 AM CDT THU JUL 24 2014


NOTE: "FAIR" INDICATES FEW OR NO CLOUDS BELOW 12,000 FEET WITH NO
SIGNIFICANT WEATHER AND/OR OBSTRUCTIONS TO VISIBILITY. N/A MEANS
CURRENT SKY AND/OR WEATHER CONDITIONS ARE NOT AVAILABLE.

MNZ060>063-068>070-240900-
   Twin Cities Metro

CITY           SKY/WX    TMP DP  RH WIND       PRES   REMARKS
TWIN CITIES    CLEAR     66  57  72 SE5       30.16F
ST PAUL        CLEAR     64  59  83 CALM      30.17S
CRYSTAL        CLEAR     61  56  83 CALM      30.15S
BLAINE         CLEAR     61  59  94 CALM      30.17S
LAKEVILLE      CLEAR     55  54  94 CALM      30.17S FOG
EDEN PRAIRIE   CLEAR     62  57  83 CALM      30.16S
SOUTH ST PAUL  CLEAR     62  57  82 CALM      30.16S
LAKE ELMO      FAIR      55  55 100 CALM      30.18S
$$
MNZ001>005-007-008-013>017-022>024-027-028-240900-
   Northwest Minnesota

CITY           SKY/WX    TMP DP  RH WIND       PRES   REMARKS
BEMIDJI        PTCLDY    51  48  92 CALM      30.18S
HALLOCK        CLEAR     55  54  94 SE5       30.14S
ROSEAU         MOCLDY    52  46  82 CALM      30.16F
WARROAD        PTCLDY    52  48  87 CALM      30.18S
THIEF RVR FALL CLEAR     57  54  88 E5        30.16F
CROOKSTON      PTCLDY    57  55  94 CALM      30.15F
FOSSTON        CLEAR     52  46  82 CALM      30.17F
DETROIT LAKES  CLEAR     59  57  94 E3        30.17F
MOORHEAD       PTCLDY    63  61  94 SE3       30.15F
PARK RAPIDS    PTCLDY    56  53  90 CALM      30.18S
$$
MNZ006-009>011-018-025>026-240900-
   North Central Minnesota

CITY           SKY/WX    TMP DP  RH WIND       PRES   REMARKS
BAUDETTE       MOCLDY    56  53  90 SW3       30.18S
FLAG ISLAND    PTCLDY    64  57  77 CALM      30.15R HAZE
INTL FALLS     CLEAR     48  47  96 CALM      30.17S
WASKISH        PTCLDY    52  50  93 CALM      30.18R
BIG FORK       CLEAR     48  46  93 CALM      30.18F
LONGVILLE      PTCLDY    52  52 100 CALM      30.18R
GRAND RAPIDS   PTCLDY    57  48  72 CALM      30.18S
CRANE LAKE     CLEAR     45  43  93 CALM      30.19F
ORR            CLEAR     46  45  93 CALM      30.16F
COOK           CLEAR     46  45  93 CALM      30.19S
$$
MNZ012-019>021-037-240900-
   Northeast Minnesota

CITY           SKY/WX    TMP DP  RH WIND       PRES   REMARKS
DULUTH         PTCLDY    57  49  74 E3        30.18S
ELY            CLEAR     45  43  93 CALM      30.18F
HIBBING        PTCLDY    46  44  93 NW3       30.19S
EVELETH          N/A     45  43  93 CALM      30.19F FOG
DULUTH HARBOR  CLEAR     55  54  94 CALM      30.19S
TWO HARBORS    CLEAR     46  43  87 CALM      30.17S
SILVER BAY     CLEAR     45  45 100 CALM      30.17S
GRAND MARAIS     N/A     49  47  93 CALM      30.16F
G MARAIS ARPRT CLEAR     43  39  87 W5        30.20S
$$
MNZ029>031-032-039>041-046>048-054>057-064-240900-
   West Central Minnesota

CITY           SKY/WX    TMP DP  RH WIND       PRES   REMARKS
FERGUS FALLS   CLEAR     64  55  72 CALM      30.16S
WHEATON        CLEAR     55  55 100 E5        30.17S
MORRIS         CLEAR     57  55  94 E7        30.15F
ALEXANDRIA     CLEAR     61  56  83 CALM      30.19S
ELBOW LAKE     FAIR      64  58  81 E6        30.16F
WADENA         CLEAR     52  52 100 CALM      30.18S FOG
GLENWOOD       CLEAR     59  55  88 E5        30.18F
APPLETON       CLEAR     61  55  82 CALM      30.15F
BENSON         CLEAR     57  55  94 CALM      30.17S
ORTONVILLE     CLEAR     61  55  82 S3        30.15F
MADISON        CLEAR     61  57  88 CALM      30.15F
WILLMAR        FAIR      57  54  88 CALM      30.18F
$$
MNZ033>034-036-042>043-049>051-058-059-240900-
   Central Minnesota

CITY           SKY/WX    TMP DP  RH WIND       PRES   REMARKS
ST CLOUD       CLEAR     54  52  93 CALM      30.17S
SAUK CENTRE    FAIR      55  54  95 CALM      30.18F
PAYNESVILLE    CLEAR     52  52 100 CALM      30.18F
AITKIN         HAZE      52  46  82 CALM      30.16S VSB 3/4
PINE RIVER     CLEAR     52  52 100 CALM      30.21S
BRAINERD       PTCLDY    51  51 100 CALM      30.18S
STAPLES        CLEAR     54  52  94 CALM      30.18S
LONG PRAIRIE   FAIR      54  54 100 CALM      30.19S
LITTLE FALLS   CLEAR     54  52  94 CALM      30.18S
LITCHFIELD       N/A     61  59  94 CALM      30.18S
BUFFALO        CLEAR     58  54  85 CALM      30.18S
MAPLE LAKE     CLEAR     56  55  95 CALM      30.18F
$$
MNZ037-044-045-052-053-240900-
   East Central Minnesota

CITY           SKY/WX    TMP DP  RH WIND       PRES   REMARKS
PRINCETON      CLEAR     55  54  94 CALM      30.17S
MORA             N/A     54  52  94 CALM      30.18S FOG
CAMBRIDGE      CLEAR     57  52  82 CALM      30.15S
RUSH CITY      MOCLDY    55  54  95 CALM      30.17S
MOOSE LAKE     PTCLDY    55  52  88 NE5       30.16S
HINCKLEY       CLOUDY    59  57  94 CALM      30.17F
CLOQUET        MOCLDY    55  52  88 CALM      30.18S
MCGREGOR       CLEAR     54  52  94 CALM      30.18S
$$
MNZ071>073-080-081-089-090-097-098-240900-
   Southwest Minnesota

CITY           SKY/WX    TMP DP  RH WIND       PRES   REMARKS
MONTEVIDEO     CLEAR     61  55  82 S5        30.16F
GRANITE FALLS  CLEAR     58  54  88 S5        30.18F
CANBY          CLEAR     59  56  88 S3        30.17F
MARSHALL       CLEAR     59  52  77 CALM      30.16F
REDWOOD FALLS  CLEAR     60  53  77 CALM      30.16F
OLIVIA         CLEAR     59  54  82 CALM      30.16F
PIPESTONE      CLEAR     61  54  77 SE3       30.17F
WINDOM         CLEAR     55  52  88 CALM      30.18F
WORTHINGTON    CLEAR     57  52  82 CALM      30.19F
JACKSON        CLEAR     55  52  88 CALM      30.19S
TRACY          CLEAR     64  53  65 S6        30.18S
SLAYTON        CLEAR     59  54  82 CALM      30.19F
$$
MNZ065>067-074>077-082>085-091>093-240900-
   South Central Minnesota

CITY           SKY/WX    TMP DP  RH WIND       PRES   REMARKS
MANKATO        CLEAR     63  52  67 CALM      30.16F
NEW ULM        CLEAR     57  54  88 CALM      30.17S
ST JAMES       CLEAR     55  54  94 CALM      30.18S
FAIRMONT       CLEAR     57  50  77 CALM      30.17F
GLENCOE        CLEAR     58  53  82 CALM      30.16F
FARIBAULT      CLEAR     55  50  82 CALM      30.17F
OWATONNA       CLEAR     55  52  88 CALM      30.17F
WASECA         CLEAR     55  50  82 CALM      30.18F
ALBERT LEA     CLEAR     55  55 100 CALM      30.18S
$$
MNZ078>079-086>088-094>096-240900-
   Southeast Minnesota

CITY           SKY/WX    TMP DP  RH WIND       PRES   REMARKS
ROCHESTER      CLEAR     63  54  72 CALM      30.19S
RED WING       CLEAR     57  55  94 CALM      30.16S
STANTON        CLEAR     56  53  91 CALM      30.16S
DODGE CENTER   CLEAR     57  54  88 CALM      30.18S
WINONA         CLEAR     59  57  94 NW3       30.17S
AUSTIN         PTCLDY    57  55  94 CALM      30.17F
PRESTON        CLEAR     58  57  94 CALM      30.18S
$$
ABBREVIATIONS USED IN REMARKS
   TC - TEMPERATURES IN CELSIUS
  WCI - WIND CHILL INDEX
   HX - HEAT INDEX
  VSB - VISIBILITY
$$


USA.gov is the U.S. government's official web portal to all federal, state and local government web resources and services.